GPD201 KSAN-KPHX

Flight info

Callsign GPD201
Flight time 1h 13m
Altitude 25000
Route BRDR7 IPL J18 BZA HOGGZ MOHAK ARLIN4
Aircraft PC12/L-SDFGRWY/S

Departure

Time 2026-04-24 02:45
Airport San Diego International Airport (KSAN)

Arrival

Time 2026-04-24 03:59
Airport Phoenix Sky Harbor International Airport (KPHX)
Time Latitude Longitude Altitude Speed Heading
2026-04-24 02:32 32.73421 -117.17884 15 ft 0 kts 18°
2026-04-24 02:41 32.73421 -117.17907 23 ft 10 kts 214°
2026-04-24 02:41 32.73381 -117.17928 22 ft 0 kts 206°
2026-04-24 02:42 32.73380 -117.17928 22 ft 1 kts 207°
2026-04-24 02:42 32.73346 -117.17949 22 ft 15 kts 206°
2026-04-24 02:42 32.73228 -117.17953 18 ft 13 kts 133°
2026-04-24 02:43 32.73198 -117.17849 18 ft 14 kts 103°
2026-04-24 02:43 32.73181 -117.17777 19 ft 13 kts 104°
2026-04-24 02:43 32.73147 -117.17676 19 ft 12 kts 143°
2026-04-24 02:43 32.73131 -117.17668 19 ft 0 kts 172°
2026-04-24 02:44 32.73088 -117.17676 18 ft 15 kts 197°
2026-04-24 02:44 32.73061 -117.17752 17 ft 0 kts 287°
2026-04-24 02:44 32.73088 -117.17863 17 ft 36 kts 286°
2026-04-24 02:45 32.73257 -117.18542 21 ft 89 kts 286°
2026-04-24 02:45 32.73374 -117.19070 64 ft 104 kts 285°
2026-04-24 02:45 32.73589 -117.19886 359 ft 103 kts 291°
2026-04-24 02:45 32.73846 -117.20704 706 ft 108 kts 294°
2026-04-24 02:46 32.74124 -117.21520 1088 ft 109 kts 294°
2026-04-24 02:46 32.74441 -117.22360 1478 ft 108 kts 296°
2026-04-24 02:46 32.74748 -117.23149 1944 ft 106 kts 296°
2026-04-24 02:46 32.75061 -117.23944 2365 ft 107 kts 297°
2026-04-24 02:47 32.75380 -117.24745 2802 ft 108 kts 297°
2026-04-24 02:47 32.75707 -117.25562 3235 ft 111 kts 296°
2026-04-24 02:47 32.76039 -117.26393 3671 ft 112 kts 296°
2026-04-24 02:47 32.76369 -117.27227 4144 ft 111 kts 294°
2026-04-24 02:48 32.76634 -117.28090 4616 ft 111 kts 289°
2026-04-24 02:48 32.76886 -117.28977 5041 ft 118 kts 289°
2026-04-24 02:48 32.77157 -117.29936 5462 ft 126 kts 289°
2026-04-24 02:48 32.77440 -117.30952 5943 ft 130 kts 289°
2026-04-24 02:49 32.77486 -117.31994 6463 ft 132 kts 244°
2026-04-24 02:49 32.76708 -117.32499 6967 ft 139 kts 178°
2026-04-24 02:49 32.75880 -117.31885 7423 ft 148 kts 134°
2026-04-24 02:49 32.75227 -117.30917 7899 ft 153 kts 133°
2026-04-24 02:50 32.74458 -117.29864 7985 ft 186 kts 134°
2026-04-24 02:50 32.73534 -117.28621 7990 ft 214 kts 134°
2026-04-24 02:50 32.72489 -117.27229 7990 ft 236 kts 134°
2026-04-24 02:50 32.71359 -117.25736 7991 ft 249 kts 134°
2026-04-24 02:51 32.70185 -117.24191 7996 ft 254 kts 134°
2026-04-24 02:51 32.68995 -117.22628 8022 ft 256 kts 134°
2026-04-24 02:51 32.67849 -117.21113 8622 ft 236 kts 134°
2026-04-24 02:51 32.66789 -117.19688 9237 ft 225 kts 134°
2026-04-24 02:52 32.65782 -117.18310 9781 ft 221 kts 134°
2026-04-24 02:52 32.64792 -117.16926 10127 ft 224 kts 130°
2026-04-24 02:52 32.64183 -117.15185 10465 ft 230 kts 104°
2026-04-24 02:52 32.63850 -117.13316 10865 ft 232 kts 103°
2026-04-24 02:53 32.63524 -117.11459 11335 ft 229 kts 103°
2026-04-24 02:53 32.63050 -117.09686 11679 ft 230 kts 125°
2026-04-24 02:53 32.61920 -117.08364 12074 ft 225 kts 147°
2026-04-24 02:53 32.60665 -117.07250 12350 ft 227 kts 148°
2026-04-24 02:54 32.59428 -117.06159 12730 ft 223 kts 147°
2026-04-24 02:54 32.58472 -117.04689 12971 ft 232 kts 116°
2026-04-24 02:54 32.58130 -117.02810 13256 ft 236 kts 88°
2026-04-24 02:54 32.58536 -117.00918 13517 ft 235 kts 59°
2026-04-24 02:55 32.59557 -116.99452 13760 ft 230 kts 37°
2026-04-24 02:55 32.60661 -116.98094 13952 ft 237 kts 54°
2026-04-24 02:55 32.61199 -116.96266 14352 ft 232 kts 79°
2026-04-24 02:55 32.61412 -116.94366 14627 ft 234 kts 83°
2026-04-24 02:56 32.61590 -116.92446 14895 ft 235 kts 83°
2026-04-24 02:56 32.61773 -116.90512 15165 ft 237 kts 83°
2026-04-24 02:56 32.61966 -116.88567 15421 ft 239 kts 82°
2026-04-24 02:56 32.62168 -116.86608 15702 ft 240 kts 82°
2026-04-24 02:57 32.62374 -116.84642 15961 ft 242 kts 82°
2026-04-24 02:57 32.62566 -116.82617 15992 ft 251 kts 83°
2026-04-24 02:57 32.62765 -116.80515 15989 ft 262 kts 83°
2026-04-24 02:57 32.62980 -116.78334 15990 ft 270 kts 82°
2026-04-24 02:58 32.63202 -116.76097 15993 ft 276 kts 83°
2026-04-24 02:58 32.63426 -116.73816 15997 ft 280 kts 83°
2026-04-24 02:58 32.63652 -116.71503 15993 ft 285 kts 83°
2026-04-24 02:58 32.63882 -116.69152 15996 ft 287 kts 82°
2026-04-24 02:59 32.64114 -116.66787 15996 ft 291 kts 83°
2026-04-24 02:59 32.64348 -116.64392 15996 ft 293 kts 83°
2026-04-24 02:59 32.64581 -116.62002 16163 ft 286 kts 83°
2026-04-24 02:59 32.64802 -116.59725 16802 ft 267 kts 82°
2026-04-24 03:00 32.65006 -116.57624 17503 ft 253 kts 82°
2026-04-24 03:00 32.65210 -116.55534 17853 ft 257 kts 82°
2026-04-24 03:00 32.65415 -116.53421 18228 ft 259 kts 82°
2026-04-24 03:00 32.65619 -116.51293 18551 ft 261 kts 82°
2026-04-24 03:01 32.65825 -116.49149 18870 ft 262 kts 83°
2026-04-24 03:01 32.66032 -116.46994 19219 ft 262 kts 82°
2026-04-24 03:01 32.66238 -116.44857 19600 ft 262 kts 82°
2026-04-24 03:01 32.66445 -116.42697 19927 ft 264 kts 83°
2026-04-24 03:02 32.66652 -116.40525 20275 ft 265 kts 83°
2026-04-24 03:02 32.66861 -116.38339 20608 ft 268 kts 83°
2026-04-24 03:02 32.67070 -116.36138 20943 ft 270 kts 83°
2026-04-24 03:02 32.67281 -116.33918 21268 ft 272 kts 83°
2026-04-24 03:03 32.67493 -116.31685 21609 ft 273 kts 83°
2026-04-24 03:03 32.67706 -116.29436 21934 ft 275 kts 83°
2026-04-24 03:03 32.67917 -116.27186 22053 ft 275 kts 83°
2026-04-24 03:03 32.68129 -116.24926 22056 ft 276 kts 83°
2026-04-24 03:04 32.68342 -116.22658 22056 ft 277 kts 83°
2026-04-24 03:04 32.68551 -116.20438 22368 ft 263 kts 83°
2026-04-24 03:04 32.68753 -116.18291 22494 ft 262 kts 83°
2026-04-24 03:04 32.68955 -116.16138 22581 ft 263 kts 83°
2026-04-24 03:05 32.69157 -116.13982 22703 ft 262 kts 83°
2026-04-24 03:05 32.69355 -116.11858 22826 ft 262 kts 83°
2026-04-24 03:05 32.69557 -116.09696 23041 ft 264 kts 83°
2026-04-24 03:05 32.69758 -116.07533 23260 ft 264 kts 83°
2026-04-24 03:06 32.69960 -116.05350 23407 ft 268 kts 83°
2026-04-24 03:06 32.70163 -116.03152 23609 ft 268 kts 83°
2026-04-24 03:06 32.70367 -116.00951 23756 ft 269 kts 83°
2026-04-24 03:06 32.70574 -115.98744 23890 ft 269 kts 83°
2026-04-24 03:07 32.70783 -115.96532 24037 ft 270 kts 83°
2026-04-24 03:07 32.70996 -115.94315 24176 ft 271 kts 83°
2026-04-24 03:07 32.71211 -115.92090 24322 ft 272 kts 83°
2026-04-24 03:07 32.71429 -115.89857 24468 ft 273 kts 83°
2026-04-24 03:08 32.71650 -115.87619 24607 ft 273 kts 83°
2026-04-24 03:08 32.72100 -115.83123 24876 ft 275 kts 83°
2026-04-24 03:08 32.72331 -115.80838 24887 ft 282 kts 83°
2026-04-24 03:09 32.72568 -115.78506 24888 ft 287 kts 83°
2026-04-24 03:09 32.72803 -115.76132 24886 ft 291 kts 84°
2026-04-24 03:09 32.72923 -115.73716 24888 ft 295 kts 88°
2026-04-24 03:09 32.73038 -115.71280 24890 ft 298 kts 85°
2026-04-24 03:10 32.73264 -115.68824 24883 ft 300 kts 82°
2026-04-24 03:10 32.73523 -115.66353 24889 ft 304 kts 83°
2026-04-24 03:10 32.73751 -115.63842 24882 ft 308 kts 84°
2026-04-24 03:10 32.73965 -115.61298 24888 ft 311 kts 84°
2026-04-24 03:11 32.74189 -115.58729 24871 ft 314 kts 83°
2026-04-24 03:11 32.74423 -115.56145 24871 ft 315 kts 83°
2026-04-24 03:11 32.74655 -115.53551 24870 ft 317 kts 83°
2026-04-24 03:11 32.74878 -115.50950 24870 ft 317 kts 85°
2026-04-24 03:12 32.74945 -115.48337 24864 ft 317 kts 89°
2026-04-24 03:12 32.75011 -115.45719 24872 ft 318 kts 88°
2026-04-24 03:12 32.75084 -115.43097 24869 ft 318 kts 89°
2026-04-24 03:12 32.75149 -115.40464 24872 ft 319 kts 89°
2026-04-24 03:13 32.75212 -115.37830 24884 ft 319 kts 89°
2026-04-24 03:13 32.75283 -115.35196 24883 ft 319 kts 88°
2026-04-24 03:13 32.75363 -115.32559 24878 ft 320 kts 88°
2026-04-24 03:13 32.75450 -115.29919 24887 ft 320 kts 88°
2026-04-24 03:14 32.75545 -115.27281 24889 ft 320 kts 88°
2026-04-24 03:14 32.75637 -115.24645 24885 ft 320 kts 89°
2026-04-24 03:14 32.75608 -115.22003 24886 ft 320 kts 92°
2026-04-24 03:14 32.75596 -115.19362 24885 ft 320 kts 89°
2026-04-24 03:15 32.75676 -115.16725 24885 ft 320 kts 88°
2026-04-24 03:15 32.75765 -115.14087 24878 ft 320 kts 88°
2026-04-24 03:15 32.75819 -115.11447 24884 ft 320 kts 89°
2026-04-24 03:15 32.75863 -115.08844 24883 ft 320 kts 89°
2026-04-24 03:16 32.75769 -115.06215 24880 ft 318 kts 95°
2026-04-24 03:16 32.75806 -115.03590 24882 ft 318 kts 85°
2026-04-24 03:16 32.76014 -115.00975 24883 ft 317 kts 85°
2026-04-24 03:16 32.76046 -114.98359 24880 ft 317 kts 89°
2026-04-24 03:17 32.76129 -114.95742 24881 ft 317 kts 85°
2026-04-24 03:17 32.76375 -114.93142 24878 ft 315 kts 77°
2026-04-24 03:17 32.76641 -114.90567 24873 ft 316 kts 89°
2026-04-24 03:17 32.76572 -114.87961 24871 ft 316 kts 94°
2026-04-24 03:18 32.76462 -114.85345 24873 ft 317 kts 92°
2026-04-24 03:18 32.76479 -114.82720 24873 ft 318 kts 88°
2026-04-24 03:18 32.76566 -114.80092 24876 ft 319 kts 88°
2026-04-24 03:18 32.76618 -114.77459 24875 ft 319 kts 89°
2026-04-24 03:19 32.76635 -114.74824 24875 ft 319 kts 90°
2026-04-24 03:19 32.76660 -114.72183 24877 ft 320 kts 89°
2026-04-24 03:19 32.76699 -114.69539 24878 ft 320 kts 89°
2026-04-24 03:19 32.76737 -114.66897 24878 ft 320 kts 89°
2026-04-24 03:20 32.76768 -114.64256 24879 ft 320 kts 89°
2026-04-24 03:20 32.76799 -114.61611 24878 ft 320 kts 89°
2026-04-24 03:20 32.76831 -114.58967 24874 ft 320 kts 89°
2026-04-24 03:20 32.76871 -114.56321 24868 ft 321 kts 89°
2026-04-24 03:21 32.76912 -114.53642 24618 ft 330 kts 89°
2026-04-24 03:21 32.76950 -114.50868 24192 ft 341 kts 89°
2026-04-24 03:21 32.76987 -114.48027 23741 ft 341 kts 89°
2026-04-24 03:21 32.77023 -114.45253 23257 ft 331 kts 89°
2026-04-24 03:22 32.77059 -114.42594 22751 ft 322 kts 89°
2026-04-24 03:22 32.77095 -114.39929 22248 ft 315 kts 89°
2026-04-24 03:22 32.77128 -114.37393 21788 ft 308 kts 89°
2026-04-24 03:22 32.77161 -114.34838 21320 ft 302 kts 89°
2026-04-24 03:23 32.77192 -114.32365 20868 ft 298 kts 89°
2026-04-24 03:23 32.77223 -114.29921 20447 ft 298 kts 89°
2026-04-24 03:23 32.77255 -114.27456 20042 ft 306 kts 88°
2026-04-24 03:23 32.77287 -114.24908 19613 ft 310 kts 89°
2026-04-24 03:24 32.77316 -114.22326 19169 ft 313 kts 89°
2026-04-24 03:24 32.77345 -114.19731 18723 ft 315 kts 88°
2026-04-24 03:24 32.77375 -114.17135 18290 ft 315 kts 88°
2026-04-24 03:24 32.77405 -114.14537 17809 ft 314 kts 88°
2026-04-24 03:25 32.77433 -114.11953 17314 ft 313 kts 89°
2026-04-24 03:25 32.77461 -114.09376 16853 ft 311 kts 89°
2026-04-24 03:25 32.77488 -114.06813 16399 ft 309 kts 89°
2026-04-24 03:25 32.77515 -114.04268 15949 ft 307 kts 89°
2026-04-24 03:26 32.77541 -114.01738 15533 ft 305 kts 89°
2026-04-24 03:26 32.77566 -113.99223 15122 ft 303 kts 89°
2026-04-24 03:26 32.77650 -113.96733 14715 ft 300 kts 81°
2026-04-24 03:26 32.77991 -113.94296 14315 ft 298 kts 78°
2026-04-24 03:27 32.78360 -113.91879 13924 ft 297 kts 78°
2026-04-24 03:27 32.78706 -113.89507 13872 ft 285 kts 79°
2026-04-24 03:27 32.79028 -113.87226 13869 ft 275 kts 79°
2026-04-24 03:27 32.79343 -113.85017 13868 ft 268 kts 79°
2026-04-24 03:28 32.79654 -113.82855 13860 ft 264 kts 79°
2026-04-24 03:28 32.79961 -113.80720 13860 ft 261 kts 79°
2026-04-24 03:28 32.80263 -113.78604 13863 ft 259 kts 79°
2026-04-24 03:28 32.80563 -113.76502 13862 ft 257 kts 79°
2026-04-24 03:29 32.80856 -113.74450 13861 ft 255 kts 79°
2026-04-24 03:29 32.81151 -113.72380 13859 ft 254 kts 79°
2026-04-24 03:29 32.81447 -113.70313 13862 ft 253 kts 78°
2026-04-24 03:29 32.82059 -113.68390 13865 ft 247 kts 53°
2026-04-24 03:30 32.83133 -113.66838 13868 ft 242 kts 43°
2026-04-24 03:30 32.84258 -113.65348 13869 ft 242 kts 43°
2026-04-24 03:30 32.85381 -113.63851 13865 ft 243 kts 43°
2026-04-24 03:30 32.86499 -113.62347 13865 ft 243 kts 43°
2026-04-24 03:31 32.87619 -113.60840 13863 ft 243 kts 43°
2026-04-24 03:31 32.88375 -113.59824 13866 ft 243 kts 43°
2026-04-24 03:31 32.89497 -113.58318 13868 ft 243 kts 43°
2026-04-24 03:31 32.90611 -113.56822 13865 ft 247 kts 43°
2026-04-24 03:32 32.91763 -113.55276 13867 ft 253 kts 43°
2026-04-24 03:32 32.92939 -113.53693 13870 ft 257 kts 43°
2026-04-24 03:32 32.94127 -113.52091 13866 ft 260 kts 43°
2026-04-24 03:32 32.95345 -113.50453 13867 ft 267 kts 44°
2026-04-24 03:33 32.96589 -113.48778 13863 ft 272 kts 44°
2026-04-24 03:33 32.97851 -113.47074 13860 ft 276 kts 44°
2026-04-24 03:33 32.99124 -113.45356 13862 ft 278 kts 44°
2026-04-24 03:33 33.00410 -113.43622 13865 ft 280 kts 44°
2026-04-24 03:34 33.01699 -113.41881 13861 ft 281 kts 44°
2026-04-24 03:34 33.02992 -113.40136 13864 ft 282 kts 44°
2026-04-24 03:34 33.04291 -113.38381 13860 ft 282 kts 44°
2026-04-24 03:34 33.05589 -113.36626 13862 ft 282 kts 44°
2026-04-24 03:35 33.06887 -113.34870 13861 ft 283 kts 44°
2026-04-24 03:35 33.08188 -113.33110 13865 ft 283 kts 44°
2026-04-24 03:35 33.09477 -113.31363 13967 ft 279 kts 44°
2026-04-24 03:35 33.10765 -113.29621 13970 ft 281 kts 44°
2026-04-24 03:36 33.12057 -113.27871 13965 ft 282 kts 44°
2026-04-24 03:36 33.13354 -113.26114 13970 ft 282 kts 44°
2026-04-24 03:36 33.14650 -113.24356 13960 ft 283 kts 44°
2026-04-24 03:36 33.15951 -113.22589 13967 ft 283 kts 44°
2026-04-24 03:37 33.17254 -113.20818 13962 ft 284 kts 44°
2026-04-24 03:37 33.18556 -113.19050 13962 ft 284 kts 44°
2026-04-24 03:37 33.19862 -113.17276 13963 ft 285 kts 44°
2026-04-24 03:37 33.21171 -113.15497 13965 ft 285 kts 44°
2026-04-24 03:38 33.22490 -113.13704 13970 ft 289 kts 44°
2026-04-24 03:38 33.23823 -113.11891 13962 ft 292 kts 44°
2026-04-24 03:38 33.25163 -113.10064 13967 ft 293 kts 44°
2026-04-24 03:38 33.26483 -113.08203 13966 ft 295 kts 50°
2026-04-24 03:39 33.27338 -113.05953 13961 ft 303 kts 74°
2026-04-24 03:39 33.27556 -113.03448 13969 ft 303 kts 88°
2026-04-24 03:39 33.27606 -113.00963 13975 ft 303 kts 89°
2026-04-24 03:39 33.27646 -112.98447 13978 ft 303 kts 89°
2026-04-24 03:40 33.27709 -112.95930 13979 ft 303 kts 88°
2026-04-24 03:40 33.27781 -112.93414 13986 ft 303 kts 88°
2026-04-24 03:40 33.27844 -112.90902 13988 ft 303 kts 88°
2026-04-24 03:40 33.27903 -112.88389 13993 ft 303 kts 88°
2026-04-24 03:41 33.27963 -112.85877 13993 ft 303 kts 88°
2026-04-24 03:41 33.28025 -112.83367 14004 ft 303 kts 88°
2026-04-24 03:41 33.28086 -112.80854 14009 ft 302 kts 88°
2026-04-24 03:41 33.28146 -112.78340 14012 ft 302 kts 89°
2026-04-24 03:42 33.28205 -112.75831 14015 ft 302 kts 89°
2026-04-24 03:42 33.28264 -112.73318 14019 ft 303 kts 89°
2026-04-24 03:42 33.28323 -112.70804 14018 ft 302 kts 89°
2026-04-24 03:42 33.28380 -112.68290 14017 ft 302 kts 89°
2026-04-24 03:43 33.28438 -112.65782 14018 ft 302 kts 89°
2026-04-24 03:43 33.28495 -112.63271 14017 ft 303 kts 89°
2026-04-24 03:43 33.28551 -112.60750 14015 ft 303 kts 89°
2026-04-24 03:43 33.28607 -112.58231 14013 ft 304 kts 89°
2026-04-24 03:44 33.28663 -112.55703 14008 ft 304 kts 89°
2026-04-24 03:44 33.28718 -112.53176 14006 ft 304 kts 89°
2026-04-24 03:44 33.28773 -112.50648 13988 ft 304 kts 89°
2026-04-24 03:44 33.28827 -112.48120 13993 ft 304 kts 89°
2026-04-24 03:45 33.28880 -112.45628 13993 ft 304 kts 89°
2026-04-24 03:45 33.28933 -112.43105 13994 ft 304 kts 89°
2026-04-24 03:45 33.28985 -112.40581 13995 ft 304 kts 89°
2026-04-24 03:45 33.29038 -112.38052 13998 ft 304 kts 89°
2026-04-24 03:46 33.29089 -112.35528 13996 ft 304 kts 89°
2026-04-24 03:46 33.29140 -112.33003 13997 ft 304 kts 89°
2026-04-24 03:46 33.29190 -112.30469 13994 ft 305 kts 89°
2026-04-24 03:46 33.29240 -112.27938 13993 ft 304 kts 89°
2026-04-24 03:47 33.29289 -112.25418 13991 ft 303 kts 89°
2026-04-24 03:47 33.29338 -112.22902 13990 ft 303 kts 89°
2026-04-24 03:47 33.29386 -112.20392 13986 ft 302 kts 89°
2026-04-24 03:47 33.29434 -112.17877 13981 ft 302 kts 89°
2026-04-24 03:48 33.29481 -112.15365 13985 ft 303 kts 89°
2026-04-24 03:48 33.29528 -112.12818 13709 ft 313 kts 89°
2026-04-24 03:48 33.29575 -112.10185 13275 ft 322 kts 89°
2026-04-24 03:48 33.29621 -112.07543 12840 ft 307 kts 89°
2026-04-24 03:49 33.29669 -112.05074 12403 ft 287 kts 86°
2026-04-24 03:49 33.30034 -112.02777 11790 ft 277 kts 72°
2026-04-24 03:49 33.30597 -112.00604 11189 ft 271 kts 70°
2026-04-24 03:49 33.31181 -111.98482 10592 ft 266 kts 69°
2026-04-24 03:50 33.31755 -111.96406 10003 ft 261 kts 69°
2026-04-24 03:50 33.32317 -111.94361 9382 ft 256 kts 69°
2026-04-24 03:50 33.32869 -111.92358 8765 ft 251 kts 70°
2026-04-24 03:50 33.33414 -111.90394 8143 ft 247 kts 69°
2026-04-24 03:51 33.33953 -111.88470 7535 ft 242 kts 70°
2026-04-24 03:51 33.34486 -111.86578 6960 ft 237 kts 70°
2026-04-24 03:51 33.35012 -111.84736 6371 ft 232 kts 70°
2026-04-24 03:51 33.35532 -111.82923 5753 ft 229 kts 69°
2026-04-24 03:52 33.36181 -111.81229 5146 ft 221 kts 48°
2026-04-24 03:52 33.37440 -111.80296 4549 ft 212 kts
2026-04-24 03:52 33.38766 -111.80384 4048 ft 201 kts 342°
2026-04-24 03:52 33.40022 -111.80793 4020 ft 174 kts 340°
2026-04-24 03:53 33.41106 -111.81197 3985 ft 152 kts 330°
2026-04-24 03:53 33.41847 -111.81940 3866 ft 132 kts 301°
2026-04-24 03:53 33.42306 -111.82864 3681 ft 126 kts 293°
2026-04-24 03:53 33.42576 -111.83842 3396 ft 127 kts 280°
2026-04-24 03:54 33.42692 -111.84889 3233 ft 128 kts 272°
2026-04-24 03:54 33.42829 -111.85927 3162 ft 124 kts 279°
2026-04-24 03:54 33.42972 -111.86908 3121 ft 116 kts 268°
2026-04-24 03:54 33.42925 -111.87883 2988 ft 116 kts 263°
2026-04-24 03:55 33.42846 -111.88804 2927 ft 110 kts 264°
2026-04-24 03:55 33.42776 -111.89690 2895 ft 107 kts 265°
2026-04-24 03:55 33.42758 -111.90627 2729 ft 121 kts 270°
2026-04-24 03:55 33.42802 -111.91645 2503 ft 119 kts 271°
2026-04-24 03:56 33.42865 -111.92574 2383 ft 107 kts 269°
2026-04-24 03:56 33.42894 -111.93415 2350 ft 95 kts 267°
2026-04-24 03:56 33.42893 -111.94178 2253 ft 89 kts 265°
2026-04-24 03:56 33.42878 -111.94935 2048 ft 95 kts 265°
2026-04-24 03:57 33.42871 -111.95730 1924 ft 96 kts 268°
2026-04-24 03:57 33.42875 -111.96542 1781 ft 99 kts 270°
2026-04-24 03:57 33.42890 -111.97312 1682 ft 85 kts 268°
2026-04-24 03:57 33.42890 -111.97999 1558 ft 79 kts 268°
2026-04-24 03:58 33.42881 -111.98642 1419 ft 76 kts 270°
2026-04-24 03:58 33.42886 -111.99291 1318 ft 81 kts 269°
2026-04-24 03:58 33.42888 -111.99971 1207 ft 82 kts 265°
2026-04-24 03:58 33.42881 -112.00614 1126 ft 67 kts 272°
2026-04-24 03:59 33.42885 -112.01082 1127 ft 40 kts 274°
2026-04-24 03:59 33.42885 -112.01319 1127 ft 40 kts 271°
2026-04-24 03:59 33.42880 -112.01618 1126 ft 28 kts 249°
2026-04-24 03:59 33.42781 -112.01701 1123 ft 15 kts 254°
2026-04-24 04:00 33.42690 -112.01752 1120 ft 7 kts 248°
2026-04-24 04:00 33.42734 -112.01867 1124 ft 23 kts 319°
2026-04-24 04:00 33.42771 -112.02064 1120 ft 27 kts 272°
2026-04-24 04:00 33.42697 -112.02123 1126 ft 13 kts 196°
2026-04-24 04:01 33.42648 -112.02140 1123 ft 7 kts 201°
2026-04-24 04:01 33.42625 -112.02228 1126 ft 16 kts 273°
2026-04-24 04:01 33.42624 -112.02211 1126 ft 5 kts 271°
2026-04-24 04:01 33.42625 -112.02239 1126 ft 0 kts 270°